STARLINK-11266, 60732

Orbit data source: Space-Track

STARLINK-11266, 60732 is a payload satellite owned by SpaceX/Seattle (US) in LEO that was launched on Wed, 28 Aug 2024 UTC via an FALCON 9 launch vehicle from the Air Force Eastern Test Range (AFETR). Payload-class satellites include a variety of spacecraft equipped with specific instruments for various scientific and technological missions. These include communications satellites like Starlink; space stations such as the ISS; scientific satellites like the Hubble; Earth observation satellites from companies like Planet Labs, Umbra, and HawkEye 360; GPS; miniature CubeSats for education and research; and military/defense satellites.

Loading next visibility...
Identifier
60732, 2024-152N
Orbit
LEO
Last TLE update
7 hours ago
Origin
Manufacturer
SpaceX/Seattle
Mission
Operational Commercial Communications
Bus & Motor
STARLINK V2M, Unknown motor
Mass
730 kg wet, ~700 kg dry
Launch date (UTC)
2024-08-28 (10 months ago)
Launch vehicle
FALCON 9
Launch site
Air Force Eastern Test Range (AFETR)
Object type
Payload
Rocket body
Debris
Shape & HBR
Box + 2 Pan, 29 m
Radar Cross Section
36.964 m², Large (>1 m²)

Expand to show TLE details & history

TLE from 7 hours ago
0 STARLINK-11266
1 60732U 24152N   25192.08772511  .00000425  00000-0  83684-5 0  9997
2 60732  53.1594 226.8946 0001333  72.8715 287.2449 15.69704460 50906
Epoch: 2025-07-11T02:06Z
TLE epoch observation values (Epoch: 2025-07-11T02:06:19.449Z)
Latitude
-0.00001°
Longitude
-93.93112°
Altitude
360.391 km
Speed
7.694 km/s
True Right ascension
15h 07m 34s
True Declination
0° 00' 00"
Sunlit
Object was in full shadow at epoch
Visualization orbit readout
Latitude
-49.56582°
Longitude
-156.40343°
Altitude
377.541 km
Speed
7.682 km/s
Apparent Right ascension
10h 18m 54s
Apparent Declination
-45° 03' 48"
Sunlit
Object is in daylight
Visualization observer readout
Local Sidereal Time
21:44:12
Azimuth
228.314° WSW
Elevation
-81.796°
Doppler factor
1
Orbital elements
Apogee altitude
360.902 km
Perigee altitude
359.105 km
Semi-major axis
6,738.14 km
Eccentricity
0.00013
Inclination
53.1594°
RAAN
226.8946°
Arg. of periapsis
72.8715°
True anomaly
Unknown
Mean anomaly
287.2449°
Eccentric anomaly
Unknown
Mean motion
3.92404 °/min
Orbital period
91.74 mins
BSTAR
0.0000083684
Loading maneuver chart data...
Loading SW <> Apogee altitude chart data...
Loading historical data...
Loading historical data...
Loading historical data...
Loading historical data...
Loading historical data...
Loading historical data...
Loading historical data...

STARLINK-11266 Visibility forecast

Observer location: undefined°, undefined°

Span
Click to sort rows by Start time (UTC) header in descending order
Start Az.
Max El. time (UTC)
Max El. Az.
Max El.
End time (UTC)
End Az.
4 mins2025-07-11 11:46:29.685Z328.34° NNW2025-07-11 11:47:29.685Z357.861° N36.054°2025-07-11 11:50:29.685Z115.016° SE
4 mins2025-07-12 04:15:29.685Z177.814° S2025-07-12 04:16:29.685Z150.504° SSE23.182°2025-07-12 04:19:29.685Z72.73° E
|